Погода в Козловке

Россия / Тульская область     54°37′24″N   38°21′50″E
темп.,
°C
ветер,
м/с
пор.,
м/с
влажн.,
%
обл.,
%
осадки,
мм/ч
давл.,
гПа
погр.,
м
10 мая, пн
пн1000:00+3сз47905 0.0 1021119
03:00+3ссз514860 0.0 1023276
06:00+3с513830 0.0 1024338
09:00+8с711593 0.0 1025937
12:00+11с810520 0.0 10261358
15:00+12ссв810496 0.0 10251449
18:00+11ссв61062100 0.0 1025968
21:00+7ссв5137490 0.0 1026335
11 мая, вт
вт1100:00+6ссв5147799 0.0 1027342
03:00+5ссв6138660 0.0 1026277
06:00+6ссв6138934 0.0 1026328
09:00+12св7117734 0.0 1026507
12:00+17св810695 0.0 1025831
15:00+19всв796319 0.0 10241276
18:00+17в61179100 2.1 1024536
21:00+12ююв499478 2.4 1027407
12 мая, ср
ср1200:00+8ююв33915 0.0 102839
03:00+7юз11895 0.0 102710
06:00+9св1187100 0.1 102725
09:00+9сз2494100 1.6 1025188
12:00+9с4897100 3.8 1022274
15:00+13в81593100 4.4 10191038
18:00+9ю6129387 3.4 1021730
21:00+6юв36955 3.4 1023136
13 мая, чт
чт1300:00+6в4796100 0.0 1022142
03:00+7в51196100 0.0 1021237
06:00+8вюв4119597 0.0 1020268
09:00+14юв4785100 0.1 1019583
12:00+17ююв566883 0.3 10191159
15:00+19ююв5660100 0.6 10181632
18:00+18ююв367234 0.4 1019424
21:00+13юв33887 0.4 101927
14 мая, пт
пт1400:00+12юв2293100 0.0 101927
03:00+12вюв3395100 0.0 101945
06:00+13в3796100 0.0 1019171
09:00+18юв588085 0.0 1018484
12:00+22юв6967100 0.0 10171213
15:00+23юв6106887 0.0 10151377
18:00+21юв61174100 0.0 1014548
21:00+19ююв5138485 0.8 1014379